Dewpoint
66 65 70 71 71 71 71 71 70 70 69 68 68 68 68 67 67 67 67 67 68 69 68 68 68 66 65 65 65 64 64 65 65 64 63 63 63 63 63 63 63 58 62
66 65 70 71 71 71 71 70 69 68 68 68 68 68 67 67 67 67 67 68 68 68 68 67 66 63 63 63 63 64 64 64 65 64 64 62 62 62 63 62 63 60 62
66 64 68 70 70 70 70 69 68 68 68 68 68 67 67 67 67 67 68 69 68 68 68 66 63 63 63 64 64 63 63 63 64 63 63 52 57 62 62 62 63 62 62
66 65 64 70 69 69 68 68 68 68 68 68 67 67 67 67 67 68 69 68 69 68 68 64 63 63 64 64 63 63 62 61 62 63 52 51 52 60 61 61 62 63 62
66 66 67 69 69 68 68 67 67 67 67 67 67 67 67 67 66 68 68 68 68 69 67 63 63 63 63 64 63 62 61 61 61 55 50 53 52 57 59 59 58 59 59
67 67 68 68 68 68 68 67 67 67 66 66 66 66 66 66 66 66 66 67 68 68 63 62 62 61 63 63 62 60 60 59 60 48 50 55 54 57 57 58 58 58 58
65 68 68 67 67 67 67 67 67 67 66 66 66 66 66 66 66 65 65 65 65 64 62 61 60 61 62 62 60 60 59 58 46 46 49 51 55 56 55 55 56 56 56
61 62 67 67 66 65 64 64 66 66 66 66 65 65 65 65 65 65 64 64 64 64 64 63 62 61 60 59 58 58 58 58 47 46 49 51 55 54 54 54 54 54 54
61 60 60 59 61 60 62 62 63 65 66 66 65 65 65 65 64 64 64 63 63 62 62 61 61 61 59 57 57 57 57 55 45 45 45 49 55 54 53 53 53 53 53
60 59 59 57 57 57 57 61 64 66 66 66 65 65 64 64 64 64 63 63 63 63 61 59 59 58 57 55 53 53 54 52 41 41 45 50 54 53 52 52 52 52 52
59 58 58 56 56 57 58 62 64 65 65 64 63 63 59 55 55 56 61 63 62 61 60 57 55 54 53 52 50 52 51 38 38 39 42 56 53 53 52 51 51 50 51
58 58 57 57 57 56 57 59 62 62 60 60 58 58 53 56 54 55 59 61 60 59 56 53 51 52 48 38 37 43 34 35 32 32 39 51 50 52 51 50 50 49 49
57 55 56 56 55 56 57 58 58 60 60 60 60 57 58 56 57 55 54 52 52 53 44 44 44 42 43 39 37 37 36 34 31 29 38 50 50 52 50 50 49 48 47
54 54 53 52 54 55 54 54 55 54 57 56 57 58 58 55 57 56 52 52 50 48 48 46 44 45 42 40 40 39 38 33 31 30 40 50 48 49 48 48 48 47 45
51 52 53 60 60 57 56 55 55 56 56 56 57 58 57 56 57 55 53 50 49 48 46 45 43 40 40 39 38 36 36 36 36 36 43 54 52 51 46 45 47 43 43
51 55 57 56 57 55 55 58 57 55 55 57 56 57 59 57 58 55 53 50 48 47 45 43 41 39 37 37 37 37 36 33 37 40 39 46 52 51 46 44 43 42 42
51 52 55 54 57 57 55 57 55 54 54 53 56 61 59 58 58 56 53 50 48 46 46 44 42 40 37 33 35 36 34 36 35 36 39 41 44 50 46 44 41 40 40
50 52 54 53 57 58 56 55 54 54 54 54 57 61 63 59 59 56 53 50 48 46 44 43 42 39 38 36 38 37 37 36 36 36 37 40 38 28 42 41 39 39 39
50 51 53 54 55 59 59 55 56 57 55 55 58 60 63 63 60 57 53 51 49 46 44 43 42 41 39 38 36 39 40 37 35 29 34 36 37 33 29 38 35 35 38
52 53 54 55 57 61 60 59 55 56 55 57 59 60 62 61 60 58 54 51 48 45 45 44 44 42 41 42 34 36 40 38 35 35 34 32 34 35 35 34 33 33 34
53 54 56 57 59 61 59 55 53 54 55 56 58 61 61 60 59 58 53 50 47 46 46 47 45 45 42 44 41 38 38 38 39 35 35 34 34 34 37 34 34 31 31
54 55 56 57 59 59 57 54 52 53 55 55 58 60 60 59 58 56 52 48 47 46 48 47 46 43 43 43 39 36 36 35 36 36 35 33 37 34 33 35 37 37 36
55 56 55 56 58 59 58 55 53 54 56 56 57 60 59 57 55 53 51 48 48 47 46 47 46 45 42 41 39 34 35 33 31 32 34 33 35 35 35 35 35 33 35
56 56 56 56 57 58 59 56 55 51 50 54 57 59 58 56 54 52 49 48 50 46 46 47 45 45 42 38 37 35 36 33 28 26 29 32 36 35 36 35 32 32 34
56 57 58 56 57 58 59 58 56 54 50 54 58 58 57 55 52 48 48 49 49 46 48 47 46 44 38 36 38 35 35 33 33 29 24 23 28 30 30 32 32 32 33
56 58 59 58 57 58 59 60 59 58 56 57 57 57 56 55 52 50 46 48 48 47 47 46 45 41 37 40 40 36 32 28 26 26 26 27 27 28 30 31 31 30 30
Lifted_Index
-5 -4 -4 -4 -4 -4 -4 -3 -2 -1 -0 0 0 0 0 -0 -0 -1 -1 -1 -2 -2 -3 -2 -1 0 1 1 1 1 1 1 1 2 2 2 3 3 3 3 3 3 3
-4 -4 -4 -4 -4 -4 -3 -3 -2 -1 -0 -0 -0 0 0 -0 -0 -1 -1 -2 -2 -2 -2 -2 -0 1 1 1 1 1 1 1 2 2 2 3 3 3 3 3 3 3 3
-4 -4 -3 -3 -3 -3 -3 -2 -1 -1 -1 -1 -1 -0 -0 -0 -1 -1 -2 -3 -3 -3 -2 -1 0 1 1 1 1 1 2 2 3 3 3 3 3 3 3 3 3 2 3
-4 -3 -3 -3 -3 -3 -2 -2 -2 -1 -1 -1 -1 -0 -0 -1 -1 -2 -3 -3 -3 -3 -2 -1 1 1 1 1 1 2 2 3 3 4 4 4 4 4 4 3 3 3 3
-4 -4 -3 -3 -3 -3 -2 -2 -2 -2 -1 -1 -1 -1 -1 -1 -1 -2 -2 -3 -3 -3 -2 -0 1 1 1 1 2 2 3 4 4 4 4 4 4 4 4 4 4 4 4
-4 -4 -3 -3 -3 -2 -2 -2 -2 -2 -1 -1 -1 -1 -1 -1 -1 -1 -1 -2 -2 -2 -1 1 2 2 2 2 2 3 4 5 5 5 4 4 5 5 6 6 6 6 6
-3 -2 -2 -2 -2 -1 -1 -1 -1 -1 -1 -1 -1 -1 -1 -1 -0 -0 -0 -1 -1 -1 0 1 2 2 2 3 4 5 5 6 6 5 5 5 5 6 7 7 7 7 7
-1 -1 -1 -1 0 1 1 1 -0 -1 -1 -1 -1 -1 -0 -0 -0 0 0 0 -0 -0 0 1 2 3 3 4 5 6 6 6 6 6 5 5 6 7 7 8 8 8 8
-2 -1 -1 -0 2 4 4 3 2 -0 -1 -1 -0 -0 0 0 0 0 0 0 -0 0 1 2 2 3 5 6 7 7 8 8 7 6 6 6 6 7 8 8 8 8 8
-2 -2 -1 -0 2 4 5 5 2 0 -0 -0 0 1 1 2 1 1 0 -0 -0 0 2 3 4 5 6 7 8 9 9 9 8 8 7 6 6 7 8 9 9 9 9
-1 -1 -0 1 2 4 4 4 2 1 1 1 2 2 3 3 3 1 0 -0 0 2 3 4 5 5 7 9 10 11 10 10 10 9 8 7 7 7 8 9 9 9 9
-1 0 1 2 3 3 3 3 2 1 1 2 3 3 3 3 2 1 1 1 2 3 4 4 5 6 7 9 11 11 12 11 11 11 10 9 8 7 8 8 9 9 9
-0 0 2 3 4 4 4 4 4 3 2 3 3 3 3 2 1 1 2 3 3 4 4 4 5 5 7 9 11 12 12 12 12 12 12 10 8 8 8 8 9 9 9
1 2 2 3 4 5 5 5 5 4 3 3 2 2 1 0 -0 1 2 3 4 4 4 4 4 5 7 10 11 12 12 12 12 12 11 10 9 8 8 9 9 9 9
2 3 3 4 4 5 5 4 4 4 3 2 1 0 -0 -0 -0 1 2 3 3 4 4 4 4 5 7 10 11 12 12 12 12 11 10 9 9 9 9 9 9 10 10
3 4 4 4 4 4 3 3 3 2 2 1 0 -1 -1 -1 -0 1 2 2 3 3 3 3 4 5 7 9 11 12 12 12 12 11 10 9 9 9 10 10 11 11 11
3 3 3 3 3 3 2 2 1 1 1 0 -1 -2 -1 -1 0 1 1 2 2 2 3 3 4 5 8 10 11 12 12 12 12 12 11 10 10 11 11 11 12 12 12
2 2 2 2 1 1 1 1 0 0 0 -0 -1 -2 -2 -1 -0 1 1 1 2 2 3 3 4 6 8 10 11 11 12 12 13 12 12 11 11 12 12 12 13 13 13
0 1 1 1 0 -1 -1 -0 -0 -1 -1 -1 -2 -3 -3 -2 -1 1 1 1 2 2 2 3 4 7 8 10 10 10 11 12 12 12 12 11 11 12 12 13 13 13 13
-0 -0 -0 -0 -1 -2 -2 -1 -1 -1 -1 -2 -2 -3 -3 -2 -1 0 1 1 1 2 2 3 5 7 8 9 9 9 10 11 11 12 11 11 11 12 12 12 13 13 13
-1 -1 -1 -2 -2 -3 -2 -1 -1 -1 -1 -1 -2 -2 -2 -1 -0 0 0 1 1 2 2 3 5 7 8 8 8 8 9 10 11 11 11 11 11 11 11 12 12 12 12
-2 -2 -2 -3 -3 -3 -3 -2 -1 -0 -1 -1 -1 -1 -1 -1 -0 -0 0 1 1 2 2 4 6 7 7 7 7 7 8 9 10 10 10 11 11 11 11 11 11 12 12
-3 -3 -3 -3 -3 -3 -3 -2 -1 -0 -1 -1 -1 -1 -0 -0 -0 -0 0 1 2 2 3 5 7 7 7 6 6 6 6 7 8 9 10 10 10 10 10 11 11 12 12
-3 -3 -3 -3 -3 -3 -3 -2 -1 -1 -0 -1 -1 -1 -0 -0 -0 0 1 2 2 3 4 6 7 7 7 6 6 6 6 7 7 8 9 10 10 10 11 11 11 12 12
-4 -4 -3 -3 -3 -3 -3 -3 -2 -1 -1 -1 -1 -1 -0 -0 -0 1 1 2 3 4 5 7 7 7 7 6 6 6 7 8 8 8 9 10 11 11 11 11 11 12 12
-4 -4 -3 -3 -3 -3 -3 -3 -3 -2 -1 -1 -1 -0 -0 -0 -0 1 2 3 3 4 6 7 7 7 7 6 6 6 7 8 9 10 10 10 11 11 11 11 12 12 12